DW0479 Weather Reports


time (UTC)temp
C
wind
direction
speed
KPH
gust
KPH
rain 1hr
cm
rain 24hr
cm
rain mn
cm
humidity
%
barometer
mb
20260831014245 25 342 0.0 0.0 0.00 0.03 0.03 91 1017.4
20260831013239 25 342 0.0 1.6 0.00 0.03 0.03 91 1017.4
20260831012237 25 342 0.0 0.0 0.00 0.03 0.03 90 1017.3
20260831011229 25 341 0.0 0.0 0.00 0.03 0.03 90 1017.4
20260831010717 25 342 0.0 0.0 0.00 0.03 0.03 91 1017.4
20260831005223 25 341 0.0 0.0 0.00 0.03 0.03 90 1017.3
20260831004222 26 341 0.0 0.0 0.00 0.03 0.03 90 1017.0
20260831003218 26 341 0.0 1.6 0.00 0.03 0.03 89 1016.8
20260831002214 26 341 0.0 4.8 0.00 0.03 0.03 88 1016.8
20260831001212 26 342 3.2 4.8 0.00 0.03 0.03 88 1016.8
20260831000211 26 341 1.6 4.8 0.00 0.03 0.03 87 1016.7
20260830235651 26 291 0.0 4.8 0.00 0.03 0.03 87 1016.5
20260830234207 26 292 1.6 4.8 0.00 0.03 0.03 87 1016.4
20260830233158 26 263 1.6 4.8 0.00 0.03 0.03 88 1016.5
20260830232157 27 263 0.0 1.6 0.00 0.03 0.03 87 1016.4
20260830231154 27 263 0.0 3.2 0.00 0.03 0.03 86 1016.4
20260830230139 27 262 0.0 1.6 0.00 0.03 0.03 84 1016.4
20260830225130 27 262 0.0 0.0 0.00 0.05 0.03 84 1016.4
20260830224125 27 262 0.0 1.6 0.00 0.05 0.03 84 1016.3
20260830223609 27 262 0.0 1.6 0.00 0.08 0.03 85 1016.2
20260830222108 27 262 0.0 3.2 0.00 0.10 0.03 84 1016.2
20260830221059 27 162 1.6 8.0 0.00 0.10 0.03 83 1016.2
20260830220053 27 162 1.6 8.0 0.00 0.13 0.03 83 1016.2
20260830215053 27 162 3.2 8.0 0.00 0.15 0.03 82 1016.2
20260830214048 27 158 3.2 11.3 0.00 0.15 0.03 82 1016.1
20260830213049 27 205 1.6 6.4 0.00 0.15 0.03 83 1016.2
20260830212049 27 162 1.6 9.7 0.00 0.15 0.03 82 1016.3
20260830211045 28 125 1.6 6.4 0.00 0.20 0.03 83 1016.4
20260830210044 27 117 3.2 6.4 0.00 1.52 0.03 82 1016.4
20260830205043 27 115 3.2 9.7 0.00 1.80 0.03 81 1016.5
20260830204516 27 102 4.8 12.9 0.00 1.80 0.03 81 1016.4
20260830203027 27 124 4.8 12.9 0.00 1.80 0.03 82 1016.4
20260830202510 27 100 6.4 14.5 0.00 1.80 0.03 81 1016.4
20260830201502 27 139 4.8 12.9 0.00 1.80 0.03 80 1016.4
20260830200025 28 140 3.2 11.3 0.00 1.80 0.03 79 1016.5
20260830195937 28 42 4.8 11.3 0.00 1.80 0.03 80 1016.4
20260830194448 28 90 8.0 16.1 0.00 1.80 0.03 78 1016.5
20260830193014 28 136 8.0 19.3 0.00 1.80 0.03 79 1016.4
20260830192449 28 97 8.0 17.7 0.00 1.80 0.03 78 1016.7
20260830191014 28 121 9.7 20.9 0.00 1.80 0.03 78 1016.8
20260830190013 28 158 11.3 22.5 0.00 1.80 0.03 76 1016.6
20260830185455 29 112 14.5 30.6 0.00 1.80 0.03 75 1016.9
20260830184014 32 148 11.3 29.0 0.00 1.80 0.03 66 1016.8
20260830183015 33 81 6.4 16.1 0.00 1.80 0.03 65 1016.6
20260830182506 33 101 8.0 16.1 0.00 1.80 0.03 62 1016.5
20260830181009 33 138 6.4 16.1 0.00 1.80 0.03 65 1016.7
20260830180004 33 138 6.4 17.7 0.00 1.80 0.03 62 1016.7
20260830174959 33 124 4.8 14.5 0.00 1.80 0.03 62 1016.8
20260830173948 33 122 4.8 12.9 0.00 1.80 0.03 62 1017.1
20260830172942 33 119 6.4 12.9 0.00 1.80 0.03 64 1017.2
20260830171943 33 42 4.8 16.1 0.00 1.80 0.03 67 1017.5
20260830170939 32 73 4.8 14.5 0.00 1.80 0.03 68 1017.6
20260830165938 33 71 6.4 17.7 0.00 1.80 0.03 69 1017.7
20260830164938 32 152 6.4 14.5 0.00 1.80 0.03 68 1017.9
20260830163934 32 97 4.8 12.9 0.00 1.80 0.03 70 1017.9
20260830162932 31 105 6.4 12.9 0.00 1.80 0.03 67 1017.9
20260830161933 31 119 4.8 14.5 0.00 1.80 0.03 73 1017.9
20260830160932 30 121 1.6 9.7 0.00 1.80 0.03 76 1017.9
20260830155928 30 171 3.2 9.7 0.00 1.80 0.03 74 1018.0
20260830154924 31 84 3.2 9.7 0.00 1.80 0.03 71 1018.1
20260830153923 31 94 4.8 12.9 0.00 1.80 0.03 70 1018.3
20260830153402 31 113 6.4 16.1 0.00 1.80 0.03 73 1018.2
20260830151921 30 146 4.8 14.5 0.00 1.80 0.03 76 1018.3
20260830150920 30 116 6.4 14.5 0.00 1.80 0.03 74 1018.3
20260830145915 30 99 4.8 14.5 0.00 1.80 0.03 79 1018.4
20260830145836 30 127 4.8 14.5 0.00 1.80 0.03 80 1018.3
20260830143914 29 175 3.2 16.1 0.00 1.80 0.03 83 1018.4
20260830143348 30 150 6.4 16.1 0.00 1.80 0.03 80 1018.5
20260830141915 30 110 4.8 12.9 0.00 1.80 0.03 83 1018.6
20260830140915 29 104 4.8 9.7 0.00 1.80 0.03 84 1018.6
20260830135915 28 46 3.2 12.9 0.00 1.80 0.03 86 1018.4
20260830134912 28 88 4.8 11.3 0.00 1.80 0.03 86 1018.5
20260830133910 28 34 1.6 11.3 0.00 1.80 0.03 88 1018.4
20260830132909 28 5 1.6 4.8 0.00 1.80 0.03 90 1018.4
20260830131905 27 1 1.6 6.4 0.00 1.80 0.03 92 1018.4
20260830130903 27 359 1.6 4.8 0.00 1.80 0.03 93 1018.3
20260830125856 26 358 3.2 6.4 0.00 1.80 0.03 93 1018.3
20260830124852 26 0 3.2 4.8 0.00 1.80 0.03 94 1018.3
20260830124334 26 0 1.6 4.8 0.00 1.80 0.03 94 1018.3
20260830122850 26 359 1.6 6.4 0.00 1.80 0.03 94 1018.2
20260830121848 26 0 1.6 4.8 0.00 1.80 0.03 95 1018.0
20260830120850 25 359 1.6 4.8 0.00 1.80 0.03 95 1017.8
20260830115845 25 359 1.6 4.8 0.00 1.80 0.03 95 1017.7
20260830114844 25 0 0.0 3.2 0.00 1.80 0.03 95 1017.5
20260830113844 24 359 0.0 0.0 0.00 1.80 0.03 95 1017.4
20260830112841 23 359 0.0 3.2 0.00 1.80 0.03 95 1017.2
20260830111839 23 359 0.0 1.6 0.00 1.80 0.03 95 1017.1
20260830111319 23 0 1.6 4.8 0.00 1.80 0.03 95 1016.9
20260830105836 23 0 1.6 3.2 0.00 1.80 0.03 94 1016.9
20260830104832 23 0 0.0 3.2 0.00 1.80 0.03 95 1016.7
20260830104311 23 0 0.0 0.0 0.00 1.80 0.03 94 1016.4
20260830102829 23 0 0.0 0.0 0.00 1.80 0.03 95 1016.4
20260830101831 23 359 0.0 3.2 0.00 1.80 0.03 95 1016.4
20260830100830 23 0 0.0 0.0 0.00 1.80 0.03 95 1016.4
20260830095829 23 359 0.0 1.6 0.00 1.80 0.03 94 1016.5
20260830094832 23 0 0.0 0.0 0.00 1.80 0.03 95 1016.4
20260830093829 23 359 0.0 1.6 0.00 1.80 0.03 94 1016.4
20260830092830 23 0 1.6 4.8 0.00 1.80 0.03 94 1016.4
20260830091830 23 0 3.2 6.4 0.00 1.80 0.03 95 1016.3
20260830090828 23 241 0.0 3.2 0.00 1.80 0.03 95 1016.4
20260830085829 22 241 0.0 1.6 0.00 1.80 0.03 94 1016.3
20260830084828 22 241 0.0 1.6 0.03 1.80 0.03 94 1016.4
20260830084306 23 240 0.0 0.0 0.03 1.80 0.03 95 1016.4
20260830082822 22 241 0.0 1.6 0.03 1.80 0.03 94 1016.4
20260830081823 23 241 0.0 0.0 0.03 1.80 0.03 94 1016.6
20260830081258 23 240 0.0 0.0 0.03 1.80 0.03 94 1016.8
20260830075815 23 241 0.0 0.0 0.03 1.80 0.03 94 1017.0
20260830074816 23 241 0.0 0.0 0.00 1.78 0.00 94 1016.9
20260830073814 23 240 0.0 0.0 0.00 1.78 0.00 94 1017.0
20260830072812 23 241 0.0 1.6 0.00 1.78 0.00 94 1017.0
20260830072300 23 240 0.0 3.2 0.00 1.78 0.00 94 1017.1
20260830070811 23 240 0.0 1.6 0.00 1.78 0.00 94 1017.2
20260830065809 23 241 0.0 0.0 0.00 1.78 0.00 94 1017.3
20260830064810 23 241 0.0 0.0 0.00 1.78 0.00 94 1017.4
20260830064746 23 241 0.0 0.0 0.00 1.78 0.00 94 1017.3
20260830063737 23 241 0.0 0.0 0.00 1.78 0.00 94 1017.2
20260830061807 23 240 0.0 0.0 0.00 1.78 0.00 94 1017.3
20260830060805 23 241 1.6 3.2 0.00 1.78 0.00 94 1017.3
20260830055807 23 240 0.0 3.2 0.00 1.78 0.00 94 1017.3
20260830054807 23 241 0.0 0.0 0.00 1.78 0.00 94 1017.5
20260830053807 23 241 0.0 1.6 0.00 1.78 0.00 94 1017.6
20260830052809 23 241 0.0 0.0 0.00 1.78 0.00 94 1017.7
20260830051800 23 240 0.0 0.0 0.00 1.78 0.00 94 1017.8
20260830050801 23 241 0.0 0.0 0.00 1.78 0.00 94 1017.9
20260830045759 23 240 0.0 0.0 0.00 1.78 0.00 94 1018.0
20260830044800 23 240 0.0 0.0 0.00 1.78 0.00 94 1018.3
20260830043759 23 241 0.0 0.0 0.00 1.78 0.00 94 1018.4
20260830042757 23 241 0.0 0.0 0.00 1.78 0.00 94 1018.2
20260830041758 23 241 0.0 0.0 0.00 1.78 0.00 94 1018.3
20260830040755 23 240 1.6 4.8 0.00 1.78 0.00 94 1018.3
20260830035755 23 241 3.2 6.4 0.00 1.78 1.78 94 1018.2
20260830034753 23 37 0.0 4.8 0.00 1.78 1.78 94 1018.2
20260830033743 23 37 0.0 1.6 0.00 1.78 1.78 94 1017.9
20260830032741 23 37 0.0 0.0 0.00 1.78 1.78 94 1017.9
20260830031741 23 37 0.0 0.0 0.00 1.78 1.78 93 1017.7
20260830030741 23 36 0.0 1.6 0.00 1.78 1.78 94 1017.6
20260830025742 23 36 0.0 3.2 0.00 1.78 1.78 93 1017.9
20260830024740 24 36 1.6 6.4 0.00 1.78 1.78 93 1018.0
20260830023739 24 36 1.6 4.8 0.00 1.78 1.78 94 1018.2
20260830022739 24 35 1.6 4.8 0.00 1.78 1.78 94 1017.9
20260830021740 24 36 1.6 4.8 0.00 1.78 1.78 94 1017.8
20260830020738 24 36 3.2 4.8 0.00 1.78 1.78 94 1017.8
20260830015739 24 35 1.6 4.8 0.00 1.78 1.78 94 1017.9